PSLV R/B

Satellite information

Favourite Embed

Satellite Type and Status

ROCKET BODYIN ORBIT

Key statistics

Satellite PSLV R/B at a glance.

Uptime

10755

Days in orbit

Revolutions

≈ 14.2

Per day

Orbit

SSO

Sun Synchronous Orbit

Inclination

99.1

Latest

Satellite identification and parameters

Extended collection of information and parameters for PSLV R/B.

Object identification

Identified? True

Debris? False

Object name: PSLV R/B

International designator: 1996-017B

Object number (NORAD): 23828

Object ID (CCSDS): 23828

Country: INDIA (IND)

Current information (Y/N): Y

RCS size: LARGE

Orbital parameters

Period: 101.223 minutes

Inclination: 99.0538 deg

SMA: 7194.728 km

Apoapsis: 841.432 km

Periapsis: 791.754 km

RAAN: 246.8774 deg

Eccentricy: 0.00345239

Argument of periapsis: 105.1975 deg

Mean anomaly: 255.3024 deg

Mean motion: 14.22594754 rev/day

Mean motion (dot): 0.0000014 rev/day2

B* drag term: 0.00008288882 1/REarth

Two-line elements (TLE)

Creation date: Aug. 31, 2025, 2:26 a.m.

Reference frame: TEME

Reference center: EARTH

Epoch: Aug. 30, 2025, 8:42 p.m. UTC

TLE line 0: 0 PSLV R/B

TLE line 1: 1 23828U 96017B 25242.86289480 .00000140 00000-0 82889-4 0 9990

TLE line 2: 2 23828 99.0538 246.8774 0034524 105.1975 255.3024 14.22594754527809

Live tracking on map

Real-time ground track for satellite PSLV R/B.

In-orbit conjunctions

A list of the most updated potential collisions computed for object PSLV R/B.

Target Orbit TCA Probability of collision Miss distance Type
CZ-6A DEB LEO 2025-03-04 18:33:34 0.001445856 77.0 (m) DEBRIS
CZ-6A DEB LEO 2025-02-27 09:25:00 0.0001276977 535.0 (m) DEBRIS
SL-18 DEB LEO 2025-01-06 16:34:06 0.0001397031 546.0 (m) DEBRIS
METEOR 2-8 DEB LEO 2024-08-15 13:22:01 0.0005628695 113.0 (m) DEBRIS

Associated space launch

IRS-P3 (Indian Remote Sensing Satellite) was an Indian experimental earth observation satellite.

PSLV R/B was lifted into orbit during the mission ‘PSLV | IRS-P3’, on board a PSLV space rocket.

The launch took place on March 21, 1996, 4:53 a.m. from Satish Dhawan Space Centre First Launch Pad.

For more information about the launch, click the button.

Launch to space PSLV | IRS-P3
PSLV | IRS-P3

Agency: N/A

Status: Launch Successful

Launch date: March 21, 1996, 4:53 a.m. UTC

Rocket: PSLV

Launch pad: Satish Dhawan Space Centre First Launch Pad

Location: Satish Dhawan Space Centre, India

...

Latest news about this satellite

There are no fresh news available about this satellite. Check back as we update our databases every day.


Newsletter sign-up

Weekly statistics, charts and insights to help you stay on top of the space industry.